When you browse on this site, cookies collect data to enhance your experience and personalize the content and advertising you see.
Visit our Privacy Policy to learn more. By continuing to use the site, you agree to this use of cookies and data.

Hourly Weather Guanare

Today, 4 August, Tuesday

Time Temperature Precipitation Wind Pressure Humidity
00:00 +25°C° 1.1 mm 1 mps 744 mmHg 97%
01:00 +25°C° 1.1 mm 1 mps 743 mmHg 97%
02:00 +24°C° 0.4 mm 1 mps 743 mmHg 97%
03:00 +24°C° 0.4 mm 1 mps 743 mmHg 97%
04:00 +24°C° 0.4 mm 1 mps 743 mmHg 97%
05:00 +24°C° 0 mm 1 mps 743 mmHg 96%
06:00 +23°C° 0 mm 0 mps 744 mmHg 95%
07:00 +23°C° 0 mm 0 mps 744 mmHg 94%
08:00 +26°C° 0.5 mm 1 mps 744 mmHg 90%
09:00 +28°C° 0.5 mm 1 mps 744 mmHg 85%
10:00 +29°C° 0.5 mm 2 mps 745 mmHg 80%
11:00 +29°C° 0.8 mm 2 mps 744 mmHg 80%
12:00 +29°C° 0.8 mm 2 mps 743 mmHg 79%
13:00 +30°C° 0.8 mm 2 mps 743 mmHg 79%
14:00 +29°C° 1 mm 2 mps 742 mmHg 83%
15:00 +29°C° 1 mm 2 mps 742 mmHg 88%
16:00 +28°C° 1 mm 1 mps 741 mmHg 92%
17:00 +27°C° 0.7 mm 1 mps 742 mmHg 93%
18:00 +26°C° 0.7 mm 1 mps 742 mmHg 95%
19:00 +25°C° 0.7 mm 1 mps 743 mmHg 96%
20:00 +25°C° 0.1 mm 1 mps 743 mmHg 96%
21:00 +23°C° 0.1 mm 0 mps 743 mmHg 96%
22:00 +23°C° 0.1 mm 0 mps 744 mmHg 96%
23:00 +23°C° 0 mm 0 mps 744 mmHg 96%

Tomorrow, 5 August, Wednesday

Time Temperature Precipitation Wind Pressure Humidity
00:00 +22°C° 0 mm 0 mps 743 mmHg 96%
01:00 +22°C° 0 mm 0 mps 743 mmHg 96%
02:00 +22°C° 0 mm 0 mps 742 mmHg 96%
03:00 +22°C° 0 mm 0 mps 742 mmHg 97%
04:00 +22°C° 0 mm 0 mps 742 mmHg 97%
05:00 +22°C° 0 mm 0 mps 743 mmHg 96%
06:00 +23°C° 0 mm 0 mps 743 mmHg 96%
07:00 +23°C° 0 mm 0 mps 743 mmHg 95%
08:00 +25°C° 0.1 mm 0 mps 744 mmHg 87%
09:00 +29°C° 0.1 mm 1 mps 744 mmHg 79%
10:00 +30°C° 0.1 mm 1 mps 744 mmHg 71%
11:00 +30°C° 0.5 mm 1 mps 743 mmHg 72%
12:00 +30°C° 0.5 mm 2 mps 743 mmHg 73%
13:00 +30°C° 0.5 mm 2 mps 742 mmHg 74%
14:00 +30°C° 1.1 mm 2 mps 741 mmHg 80%
15:00 +29°C° 1.1 mm 1 mps 741 mmHg 85%
16:00 +28°C° 1.1 mm 1 mps 741 mmHg 91%
17:00 +27°C° 0.9 mm 1 mps 741 mmHg 92%
18:00 +26°C° 0.9 mm 1 mps 741 mmHg 94%
19:00 +23°C° 0.9 mm 0 mps 742 mmHg 95%
20:00 +23°C° 0.1 mm 0 mps 742 mmHg 95%
21:00 +22°C° 0.1 mm 0 mps 743 mmHg 96%
22:00 +24°C° 0.1 mm 1 mps 743 mmHg 96%
23:00 +22°C° 0 mm 0 mps 743 mmHg 96%

Day after tomorrow, 6 August, Thursday

Time Temperature Precipitation Wind Pressure Humidity
00:00 +22°C° 0 mm 0 mps 742 mmHg 96%
01:00 +21°C° 0 mm 0 mps 742 mmHg 96%
02:00 +21°C° 0 mm 0 mps 742 mmHg 96%
03:00 +21°C° 0 mm 0 mps 742 mmHg 96%
04:00 +21°C° 0 mm 0 mps 742 mmHg 95%
05:00 +22°C° 0 mm 0 mps 742 mmHg 95%
06:00 +22°C° 0 mm 0 mps 742 mmHg 94%
07:00 +23°C° 0 mm 0 mps 743 mmHg 93%
08:00 +25°C° 0 mm 0 mps 743 mmHg 85%
09:00 +29°C° 0 mm 1 mps 743 mmHg 77%
10:00 +30°C° 0 mm 1 mps 744 mmHg 70%
11:00 +31°C° 0.2 mm 1 mps 743 mmHg 69%
12:00 +31°C° 0.2 mm 2 mps 742 mmHg 69%
13:00 +31°C° 0.2 mm 2 mps 742 mmHg 68%
14:00 +30°C° 1.2 mm 2 mps 741 mmHg 76%
15:00 +30°C° 1.2 mm 1 mps 741 mmHg 83%
16:00 +29°C° 1.2 mm 1 mps 740 mmHg 91%
17:00 +27°C° 0.6 mm 1 mps 741 mmHg 92%
18:00 +26°C° 0.6 mm 1 mps 741 mmHg 93%
19:00 +23°C° 0.6 mm 0 mps 742 mmHg 95%
20:00 +23°C° 0 mm 0 mps 742 mmHg 95%
21:00 +22°C° 0 mm 0 mps 743 mmHg 95%
22:00 +24°C° 0 mm 1 mps 743 mmHg 96%
23:00 +24°C° 0 mm 1 mps 743 mmHg 95%

7 August, Friday

Time Temperature Precipitation Wind Pressure Humidity
00:00 +22°C° 0 mm 0 mps 743 mmHg 95%
01:00 +22°C° 0 mm 0 mps 742 mmHg 95%
02:00 +22°C° 0 mm 0 mps 742 mmHg 95%
03:00 +22°C° 0 mm 0 mps 742 mmHg 95%
04:00 +22°C° 0 mm 0 mps 742 mmHg 94%
05:00 +22°C° 0 mm 0 mps 743 mmHg 94%
06:00 +22°C° 0 mm 0 mps 743 mmHg 93%
07:00 +23°C° 0 mm 0 mps 743 mmHg 92%
08:00 +25°C° 0 mm 0 mps 744 mmHg 84%
09:00 +29°C° 0 mm 1 mps 744 mmHg 76%
10:00 +30°C° 0 mm 1 mps 744 mmHg 67%
11:00 +31°C° 0.1 mm 2 mps 743 mmHg 68%
12:00 +31°C° 0.1 mm 2 mps 742 mmHg 68%
13:00 +31°C° 0.1 mm 2 mps 742 mmHg 69%
14:00 +31°C° 0.8 mm 2 mps 741 mmHg 74%
15:00 +30°C° 0.8 mm 2 mps 741 mmHg 79%
16:00 +30°C° 0.8 mm 1 mps 740 mmHg 84%
17:00 +28°C° 1.7 mm 1 mps 741 mmHg 88%
18:00 +27°C° 1.7 mm 1 mps 742 mmHg 91%
19:00 +24°C° 1.7 mm 0 mps 742 mmHg 95%
20:00 +23°C° 2.1 mm 0 mps 743 mmHg 96%
21:00 +23°C° 2.1 mm 0 mps 743 mmHg 96%
22:00 +25°C° 2.1 mm 1 mps 744 mmHg 97%
23:00 +25°C° 0.5 mm 1 mps 744 mmHg 97%

8 August, Saturday

Time Temperature Precipitation Wind Pressure Humidity
00:00 +24°C° 0.5 mm 1 mps 743 mmHg 97%
01:00 +22°C° 0.5 mm 0 mps 743 mmHg 97%
02:00 +22°C° 0 mm 0 mps 743 mmHg 97%
03:00 +22°C° 0 mm 0 mps 743 mmHg 96%
04:00 +22°C° 0 mm 0 mps 742 mmHg 96%
05:00 +22°C° 0 mm 0 mps 743 mmHg 95%
06:00 +23°C° 0 mm 0 mps 743 mmHg 95%
07:00 +23°C° 0 mm 0 mps 744 mmHg 94%
08:00 +27°C° 0.5 mm 1 mps 744 mmHg 88%
09:00 +28°C° 0.5 mm 1 mps 744 mmHg 82%
10:00 +30°C° 0.5 mm 2 mps 744 mmHg 76%
11:00 +30°C° 0.8 mm 2 mps 744 mmHg 77%
12:00 +30°C° 0.8 mm 2 mps 743 mmHg 78%
13:00 +30°C° 0.8 mm 2 mps 742 mmHg 80%
14:00 +30°C° 1.5 mm 2 mps 742 mmHg 83%
15:00 +29°C° 1.5 mm 1 mps 741 mmHg 87%
16:00 +29°C° 1.5 mm 1 mps 741 mmHg 91%
17:00 +27°C° 0.6 mm 1 mps 741 mmHg 92%
18:00 +24°C° 0.6 mm 0 mps 742 mmHg 93%
19:00 +23°C° 0.6 mm 0 mps 743 mmHg 94%
20:00 +23°C° 0.4 mm 0 mps 743 mmHg 95%
21:00 +23°C° 0.4 mm 0 mps 743 mmHg 95%
22:00 +23°C° 0.4 mm 0 mps 744 mmHg 95%
23:00 +23°C° 0.3 mm 0 mps 743 mmHg 96%

9 August, Sunday

Time Temperature Precipitation Wind Pressure Humidity
00:00 +23°C° 0.3 mm 0 mps 743 mmHg 96%
01:00 +22°C° 0.3 mm 0 mps 743 mmHg 96%
02:00 +22°C° 0.1 mm 0 mps 742 mmHg 97%
03:00 +22°C° 0.1 mm 0 mps 742 mmHg 97%
04:00 +22°C° 0.1 mm 0 mps 742 mmHg 97%
05:00 +22°C° 0 mm 0 mps 743 mmHg 96%
06:00 +23°C° 0 mm 0 mps 743 mmHg 96%
07:00 +23°C° 0 mm 0 mps 744 mmHg 95%
08:00 +27°C° 0.1 mm 1 mps 744 mmHg 88%
09:00 +29°C° 0.1 mm 1 mps 744 mmHg 80%
10:00 +30°C° 0.1 mm 2 mps 744 mmHg 73%
11:00 +29°C° 1.1 mm 1 mps 744 mmHg 79%
12:00 +28°C° 1.1 mm 1 mps 743 mmHg 86%
13:00 +27°C° 1.1 mm 1 mps 742 mmHg 93%
14:00 +27°C° 0.8 mm 1 mps 742 mmHg 94%
15:00 +27°C° 0.8 mm 1 mps 742 mmHg 95%
16:00 +26°C° 0.8 mm 1 mps 741 mmHg 96%
17:00 +26°C° 0.1 mm 1 mps 741 mmHg 96%
18:00 +25°C° 0.1 mm 1 mps 741 mmHg 97%
19:00 +25°C° 0.1 mm 1 mps 742 mmHg 98%
20:00 +22°C° 0 mm 0 mps 742 mmHg 97%
21:00 +22°C° 0 mm 0 mps 742 mmHg 97%
22:00 +22°C° 0 mm 0 mps 743 mmHg 96%
23:00 +22°C° 0 mm 0 mps 743 mmHg 96%
Show more